GEFSMW_prec_meanprec_030.txt.gz
QPF
0.00 0.00 0.00 0.00 0.00 0.00 0.01 0.02 0.01 0.01 0.01 0.01 0.01 0.01 0.00 0.00 0.00 0.00 0.00 0.00 0.00 0.00 0.00 0.00 0.01 0.02 0.02 0.03 0.04 0.07 0.08 0.07 0.13 0.15 0.09 0.07 0.07 0.05 0.04 0.03 0.02 0.01 0.01
0.00 0.00 0.00 0.01 0.01 0.02 0.02 0.01 0.01 0.01 0.00 0.00 0.00 0.00 0.00 0.00 0.00 0.00 0.00 0.00 0.00 0.00 0.00 0.00 0.00 0.00 0.00 0.00 0.01 0.02 0.03 0.03 0.07 0.08 0.09 0.07 0.06 0.03 0.01 0.02 0.02 0.01 0.01
0.01 0.01 0.02 0.02 0.02 0.02 0.02 0.01 0.01 0.01 0.01 0.00 0.00 0.00 0.00 0.00 0.00 0.00 0.00 0.00 0.00 0.00 0.00 0.00 0.00 0.00 0.00 0.00 0.00 0.01 0.02 0.02 0.03 0.05 0.07 0.06 0.02 0.02 0.02 0.02 0.01 0.01 0.02
0.03 0.04 0.04 0.04 0.04 0.03 0.02 0.02 0.02 0.02 0.01 0.00 0.01 0.01 0.00 0.00 0.00 0.00 0.00 0.00 0.00 0.00 0.00 0.00 0.00 0.00 0.00 0.00 0.01 0.01 0.02 0.03 0.03 0.03 0.04 0.04 0.04 0.05 0.03 0.01 0.01 0.02 0.02
0.08 0.08 0.06 0.04 0.03 0.03 0.02 0.02 0.02 0.03 0.02 0.01 0.02 0.02 0.00 0.00 0.00 0.00 0.00 0.00 0.00 0.00 0.00 0.00 0.00 0.00 0.00 0.00 0.01 0.01 0.02 0.03 0.04 0.04 0.05 0.05 0.06 0.07 0.07 0.03 0.02 0.02 0.01
0.09 0.08 0.06 0.05 0.03 0.02 0.02 0.02 0.03 0.04 0.03 0.02 0.02 0.02 0.01 0.01 0.00 0.00 0.00 0.00 0.00 0.00 0.00 0.00 0.00 0.00 0.00 0.01 0.01 0.02 0.02 0.03 0.04 0.05 0.07 0.08 0.07 0.05 0.06 0.05 0.03 0.03 0.03
0.06 0.06 0.06 0.05 0.04 0.03 0.03 0.03 0.02 0.02 0.01 0.01 0.01 0.01 0.01 0.01 0.01 0.00 0.00 0.00 0.00 0.00 0.00 0.00 0.00 0.00 0.00 0.01 0.01 0.02 0.02 0.03 0.05 0.06 0.07 0.08 0.08 0.09 0.11 0.10 0.08 0.07 0.08
0.03 0.03 0.02 0.03 0.03 0.03 0.03 0.02 0.02 0.01 0.01 0.00 0.00 0.00 0.00 0.00 0.00 0.00 0.00 0.00 0.00 0.00 0.00 0.00 0.00 0.00 0.00 0.00 0.01 0.02 0.03 0.03 0.04 0.05 0.07 0.10 0.10 0.12 0.14 0.15 0.15 0.13 0.12
0.01 0.01 0.01 0.02 0.02 0.01 0.01 0.01 0.01 0.01 0.00 0.00 0.00 0.00 0.00 0.00 0.00 0.00 0.00 0.00 0.00 0.00 0.00 0.00 0.00 0.00 0.00 0.01 0.02 0.03 0.04 0.05 0.07 0.07 0.09 0.11 0.12 0.14 0.16 0.18 0.20 0.19 0.16
0.01 0.01 0.01 0.01 0.01 0.01 0.00 0.00 0.00 0.00 0.00 0.00 0.00 0.00 0.00 0.00 0.00 0.00 0.00 0.00 0.00 0.00 0.00 0.00 0.00 0.00 0.01 0.01 0.02 0.03 0.04 0.07 0.09 0.10 0.11 0.12 0.13 0.15 0.15 0.17 0.20 0.22 0.23
0.01 0.01 0.01 0.01 0.01 0.00 0.00 0.00 0.00 0.00 0.00 0.00 0.00 0.00 0.00 0.00 0.00 0.00 0.00 0.00 0.00 0.00 0.00 0.00 0.00 0.00 0.01 0.01 0.02 0.03 0.04 0.06 0.09 0.10 0.11 0.11 0.13 0.16 0.16 0.16 0.17 0.19 0.23
0.00 0.00 0.00 0.01 0.01 0.01 0.01 0.01 0.01 0.00 0.00 0.00 0.00 0.00 0.00 0.01 0.01 0.01 0.01 0.01 0.00 0.00 0.00 0.01 0.00 0.00 0.00 0.01 0.02 0.03 0.04 0.06 0.08 0.10 0.12 0.14 0.17 0.20 0.21 0.22 0.21 0.21 0.25
0.00 0.00 0.00 0.01 0.01 0.01 0.01 0.01 0.01 0.01 0.00 0.00 0.00 0.00 0.00 0.00 0.01 0.01 0.01 0.01 0.01 0.01 0.01 0.01 0.01 0.00 0.00 0.01 0.01 0.02 0.04 0.08 0.11 0.12 0.14 0.19 0.22 0.25 0.27 0.29 0.29 0.25 0.25
0.00 0.01 0.01 0.01 0.01 0.01 0.01 0.01 0.01 0.01 0.01 0.01 0.01 0.01 0.01 0.00 0.00 0.01 0.01 0.02 0.02 0.02 0.01 0.01 0.01 0.01 0.00 0.00 0.01 0.03 0.05 0.09 0.12 0.12 0.15 0.24 0.34 0.35 0.30 0.28 0.29 0.28 0.24
0.01 0.01 0.01 0.01 0.01 0.01 0.01 0.02 0.02 0.02 0.02 0.02 0.02 0.02 0.02 0.01 0.01 0.01 0.01 0.02 0.03 0.02 0.02 0.02 0.01 0.01 0.01 0.00 0.01 0.02 0.04 0.06 0.10 0.15 0.16 0.19 0.31 0.36 0.33 0.27 0.24 0.22 0.21
0.01 0.01 0.01 0.01 0.01 0.01 0.01 0.01 0.01 0.01 0.01 0.01 0.01 0.01 0.01 0.01 0.01 0.01 0.02 0.02 0.03 0.04 0.03 0.03 0.02 0.02 0.01 0.00 0.00 0.01 0.03 0.05 0.08 0.13 0.16 0.22 0.27 0.27 0.24 0.24 0.21 0.16 0.14
0.00 0.00 0.00 0.00 0.00 0.00 0.00 0.00 0.01 0.01 0.01 0.01 0.01 0.01 0.01 0.01 0.01 0.02 0.02 0.03 0.04 0.05 0.05 0.05 0.04 0.03 0.01 0.00 0.00 0.01 0.03 0.03 0.04 0.07 0.10 0.15 0.18 0.15 0.12 0.11 0.11 0.09 0.07
0.00 0.00 0.00 0.00 0.00 0.00 0.00 0.00 0.00 0.00 0.00 0.00 0.00 0.00 0.00 0.00 0.00 0.01 0.02 0.04 0.05 0.07 0.08 0.08 0.06 0.05 0.03 0.00 0.00 0.01 0.02 0.02 0.01 0.02 0.03 0.07 0.12 0.10 0.06 0.04 0.04 0.03 0.02
0.00 0.00 0.00 0.00 0.00 0.00 0.00 0.00 0.00 0.00 0.00 0.00 0.00 0.00 0.00 0.00 0.00 0.01 0.03 0.06 0.08 0.10 0.12 0.12 0.11 0.08 0.05 0.01 0.00 0.00 0.01 0.02 0.01 0.01 0.01 0.02 0.04 0.05 0.04 0.02 0.01 0.01 0.01
0.00 0.00 0.00 0.00 0.00 0.00 0.00 0.00 0.00 0.00 0.00 0.00 0.00 0.00 0.01 0.01 0.01 0.01 0.04 0.08 0.13 0.15 0.18 0.19 0.17 0.14 0.09 0.02 0.00 0.00 0.01 0.01 0.01 0.01 0.01 0.01 0.01 0.01 0.01 0.02 0.01 0.00 0.00
0.00 0.00 0.00 0.00 0.00 0.00 0.00 0.00 0.00 0.00 0.00 0.00 0.00 0.01 0.01 0.02 0.02 0.02 0.04 0.11 0.19 0.23 0.25 0.26 0.24 0.20 0.15 0.05 0.00 0.00 0.01 0.01 0.01 0.01 0.01 0.00 0.00 0.00 0.00 0.01 0.01 0.00 0.00
0.00 0.00 0.00 0.00 0.00 0.00 0.00 0.01 0.01 0.01 0.01 0.01 0.01 0.01 0.02 0.01 0.01 0.02 0.04 0.10 0.24 0.34 0.36 0.36 0.33 0.27 0.19 0.07 0.01 0.00 0.00 0.00 0.01 0.01 0.00 0.00 0.00 0.00 0.00 0.00 0.00 0.00 0.00
0.00 0.00 0.00 0.00 0.00 0.00 0.01 0.01 0.01 0.01 0.01 0.02 0.02 0.02 0.02 0.03 0.02 0.02 0.04 0.11 0.25 0.41 0.47 0.46 0.43 0.35 0.24 0.10 0.02 0.00 0.00 0.00 0.01 0.01 0.00 0.00 0.00 0.00 0.00 0.00 0.00 0.00 0.00
0.00 0.00 0.00 0.00 0.00 0.01 0.01 0.01 0.01 0.02 0.02 0.03 0.03 0.02 0.03 0.03 0.03 0.03 0.04 0.13 0.28 0.44 0.52 0.49 0.45 0.41 0.32 0.14 0.03 0.01 0.00 0.00 0.00 0.00 0.00 0.00 0.00 0.00 0.00 0.00 0.00 0.00 0.00
0.00 0.00 0.00 0.01 0.01 0.01 0.01 0.01 0.02 0.03 0.03 0.04 0.04 0.03 0.03 0.03 0.04 0.04 0.06 0.13 0.28 0.42 0.52 0.49 0.43 0.41 0.34 0.17 0.03 0.01 0.00 0.00 0.00 0.00 0.00 0.00 0.00 0.00 0.00 0.00 0.00 0.00 0.00
0.00 0.00 0.01 0.01 0.01 0.01 0.02 0.02 0.03 0.05 0.06 0.06 0.05 0.05 0.05 0.05 0.05 0.06 0.08 0.11 0.22 0.32 0.41 0.46 0.40 0.37 0.32 0.19 0.05 0.01 0.00 0.00 0.00 0.00 0.00 0.00 0.00 0.00 0.00 0.00 0.00 0.00 0.00

GEFSMW_prec_meanprec_036.txt.gz
QPF
0.12 0.17 0.18 0.19 0.16 0.18 0.30 0.37 0.32 0.25 0.23 0.21 0.16 0.11 0.08 0.05 0.03 0.00 0.00 0.00 0.00 0.00 0.00 0.00 0.00 0.00 0.00 0.00 0.00 0.01 0.01 0.02 0.04 0.04 0.04 0.04 0.04 0.03 0.05 0.04 0.02 0.02 0.02
0.23 0.26 0.34 0.36 0.30 0.41 0.56 0.54 0.38 0.27 0.22 0.22 0.15 0.11 0.08 0.06 0.06 0.04 0.01 0.00 0.00 0.00 0.00 0.00 0.00 0.00 0.00 0.00 0.00 0.01 0.01 0.01 0.02 0.04 0.03 0.02 0.02 0.02 0.01 0.01 0.01 0.01 0.01
0.25 0.40 0.50 0.52 0.53 0.59 0.59 0.49 0.32 0.20 0.15 0.20 0.17 0.15 0.08 0.07 0.07 0.05 0.02 0.00 0.00 0.00 0.00 0.00 0.00 0.00 0.00 0.00 0.00 0.01 0.01 0.01 0.01 0.03 0.04 0.03 0.01 0.02 0.01 0.01 0.01 0.02 0.03
0.21 0.38 0.52 0.52 0.57 0.55 0.43 0.31 0.26 0.19 0.12 0.12 0.13 0.10 0.06 0.03 0.02 0.02 0.03 0.02 0.01 0.00 0.00 0.00 0.00 0.00 0.00 0.00 0.00 0.00 0.01 0.01 0.01 0.02 0.04 0.04 0.06 0.04 0.01 0.00 0.00 0.02 0.03
0.27 0.32 0.32 0.33 0.38 0.34 0.24 0.19 0.16 0.14 0.13 0.11 0.14 0.15 0.07 0.03 0.01 0.01 0.02 0.05 0.03 0.00 0.00 0.00 0.00 0.00 0.00 0.00 0.00 0.01 0.01 0.02 0.02 0.02 0.03 0.04 0.09 0.09 0.07 0.02 0.01 0.02 0.03
0.16 0.21 0.21 0.21 0.23 0.20 0.15 0.13 0.14 0.19 0.20 0.18 0.17 0.17 0.13 0.09 0.06 0.03 0.03 0.02 0.01 0.00 0.00 0.00 0.00 0.00 0.00 0.00 0.01 0.01 0.02 0.03 0.04 0.05 0.05 0.06 0.07 0.09 0.13 0.09 0.06 0.06 0.04
0.06 0.08 0.11 0.13 0.11 0.09 0.06 0.07 0.09 0.11 0.13 0.15 0.17 0.17 0.18 0.15 0.12 0.09 0.06 0.04 0.01 0.01 0.00 0.01 0.02 0.01 0.01 0.01 0.01 0.01 0.01 0.02 0.05 0.06 0.07 0.08 0.08 0.11 0.15 0.14 0.12 0.15 0.14
0.01 0.02 0.03 0.04 0.04 0.04 0.04 0.04 0.04 0.06 0.07 0.09 0.10 0.12 0.15 0.14 0.14 0.18 0.12 0.10 0.07 0.03 0.03 0.03 0.04 0.03 0.02 0.01 0.01 0.01 0.02 0.03 0.05 0.05 0.09 0.10 0.09 0.13 0.16 0.17 0.20 0.19 0.19
0.00 0.01 0.01 0.01 0.02 0.02 0.02 0.02 0.02 0.02 0.03 0.03 0.04 0.04 0.07 0.09 0.11 0.14 0.14 0.12 0.13 0.07 0.07 0.08 0.08 0.06 0.04 0.04 0.03 0.02 0.03 0.04 0.06 0.07 0.09 0.12 0.13 0.16 0.19 0.22 0.25 0.25 0.22
0.00 0.00 0.01 0.01 0.01 0.01 0.01 0.01 0.01 0.01 0.01 0.01 0.01 0.02 0.03 0.05 0.06 0.08 0.11 0.12 0.12 0.10 0.09 0.09 0.08 0.07 0.05 0.05 0.04 0.03 0.03 0.04 0.06 0.08 0.11 0.13 0.15 0.19 0.22 0.24 0.28 0.31 0.30
0.00 0.00 0.00 0.00 0.00 0.01 0.01 0.01 0.01 0.01 0.01 0.01 0.01 0.01 0.02 0.03 0.04 0.05 0.06 0.08 0.09 0.09 0.09 0.09 0.08 0.07 0.06 0.05 0.05 0.04 0.02 0.02 0.03 0.05 0.07 0.10 0.14 0.17 0.20 0.24 0.27 0.30 0.32
0.00 0.00 0.00 0.00 0.00 0.00 0.00 0.01 0.01 0.01 0.01 0.01 0.01 0.01 0.01 0.01 0.01 0.02 0.03 0.05 0.06 0.07 0.08 0.09 0.09 0.06 0.05 0.06 0.05 0.03 0.02 0.02 0.02 0.03 0.05 0.08 0.11 0.15 0.17 0.20 0.20 0.22 0.25
0.00 0.00 0.00 0.00 0.00 0.00 0.01 0.01 0.01 0.01 0.01 0.01 0.01 0.01 0.01 0.01 0.01 0.01 0.02 0.03 0.04 0.06 0.07 0.08 0.08 0.07 0.07 0.06 0.05 0.04 0.03 0.03 0.02 0.02 0.04 0.07 0.09 0.11 0.13 0.14 0.15 0.15 0.19
0.00 0.00 0.00 0.00 0.00 0.00 0.00 0.00 0.00 0.00 0.00 0.00 0.01 0.01 0.01 0.02 0.02 0.02 0.02 0.02 0.03 0.05 0.06 0.07 0.08 0.08 0.07 0.07 0.06 0.05 0.04 0.03 0.02 0.02 0.03 0.04 0.06 0.09 0.09 0.11 0.12 0.13 0.12
0.00 0.00 0.00 0.00 0.00 0.00 0.00 0.00 0.00 0.00 0.00 0.00 0.01 0.01 0.01 0.01 0.02 0.02 0.02 0.02 0.02 0.03 0.05 0.07 0.08 0.09 0.09 0.07 0.08 0.07 0.05 0.04 0.03 0.02 0.02 0.02 0.04 0.06 0.08 0.10 0.11 0.12 0.11
0.00 0.00 0.00 0.00 0.00 0.00 0.00 0.00 0.00 0.00 0.00 0.00 0.00 0.00 0.00 0.01 0.01 0.01 0.01 0.02 0.02 0.04 0.06 0.07 0.08 0.10 0.10 0.06 0.04 0.05 0.05 0.06 0.04 0.02 0.01 0.02 0.03 0.04 0.06 0.10 0.11 0.13 0.13
0.00 0.00 0.00 0.00 0.00 0.00 0.00 0.00 0.00 0.00 0.00 0.00 0.00 0.00 0.00 0.00 0.00 0.00 0.01 0.02 0.03 0.04 0.06 0.07 0.10 0.12 0.15 0.09 0.04 0.03 0.04 0.06 0.05 0.03 0.02 0.02 0.03 0.05 0.04 0.04 0.06 0.09 0.13
0.00 0.00 0.00 0.00 0.00 0.00 0.00 0.00 0.00 0.00 0.00 0.00 0.00 0.00 0.01 0.01 0.01 0.01 0.02 0.03 0.03 0.04 0.05 0.06 0.09 0.13 0.16 0.12 0.06 0.04 0.04 0.08 0.06 0.03 0.02 0.02 0.03 0.06 0.07 0.04 0.04 0.07 0.10
0.00 0.00 0.00 0.00 0.00 0.00 0.00 0.00 0.00 0.00 0.00 0.00 0.00 0.00 0.01 0.01 0.02 0.03 0.04 0.05 0.06 0.05 0.04 0.05 0.09 0.14 0.20 0.18 0.10 0.07 0.07 0.10 0.07 0.04 0.02 0.02 0.02 0.04 0.06 0.07 0.04 0.04 0.07
0.00 0.00 0.00 0.00 0.00 0.00 0.00 0.00 0.00 0.00 0.00 0.00 0.01 0.01 0.01 0.03 0.04 0.05 0.06 0.07 0.09 0.06 0.04 0.05 0.09 0.16 0.27 0.30 0.19 0.12 0.11 0.12 0.09 0.05 0.03 0.02 0.02 0.01 0.02 0.04 0.05 0.04 0.03
0.00 0.00 0.00 0.00 0.00 0.00 0.00 0.01 0.02 0.02 0.02 0.02 0.03 0.03 0.04 0.06 0.05 0.06 0.08 0.09 0.09 0.09 0.08 0.07 0.11 0.18 0.32 0.40 0.28 0.19 0.18 0.16 0.10 0.05 0.04 0.02 0.01 0.00 0.00 0.02 0.03 0.03 0.02
0.00 0.00 0.00 0.00 0.00 0.00 0.02 0.04 0.05 0.04 0.05 0.06 0.06 0.06 0.07 0.05 0.03 0.07 0.10 0.11 0.13 0.12 0.11 0.10 0.11 0.19 0.34 0.46 0.34 0.23 0.24 0.22 0.13 0.07 0.04 0.01 0.00 0.00 0.00 0.01 0.01 0.00 0.01
0.00 0.00 0.00 0.00 0.01 0.02 0.04 0.05 0.05 0.06 0.06 0.07 0.07 0.07 0.07 0.07 0.07 0.08 0.09 0.10 0.12 0.12 0.11 0.11 0.13 0.19 0.34 0.49 0.43 0.30 0.30 0.24 0.17 0.09 0.03 0.01 0.00 0.00 0.00 0.00 0.00 0.00 0.00
0.00 0.00 0.00 0.02 0.03 0.03 0.04 0.05 0.05 0.06 0.07 0.07 0.07 0.08 0.08 0.08 0.09 0.10 0.09 0.09 0.10 0.12 0.13 0.12 0.14 0.19 0.36 0.56 0.53 0.41 0.37 0.28 0.19 0.10 0.02 0.01 0.00 0.00 0.00 0.00 0.00 0.00 0.00
0.00 0.01 0.02 0.03 0.03 0.03 0.03 0.03 0.05 0.07 0.09 0.09 0.09 0.10 0.10 0.10 0.10 0.11 0.10 0.10 0.11 0.10 0.10 0.10 0.12 0.15 0.32 0.59 0.59 0.48 0.42 0.35 0.23 0.10 0.02 0.01 0.00 0.00 0.00 0.00 0.00 0.00 0.00
0.01 0.03 0.04 0.05 0.05 0.05 0.05 0.05 0.06 0.10 0.13 0.12 0.11 0.12 0.13 0.12 0.11 0.11 0.12 0.08 0.05 0.02 0.01 0.02 0.05 0.08 0.22 0.52 0.55 0.45 0.41 0.37 0.22 0.08 0.01 0.01 0.00 0.01 0.00 0.00 0.00 0.00 0.00

GEFSMW_prec_meanprec_042.txt.gz
QPF
0.11 0.25 0.42 0.67 1.03 1.34 1.68 2.10 2.49 2.51 2.13 1.61 1.23 0.92 0.58 0.34 0.19 0.10 0.07 0.07 0.04 0.02 0.01 0.00 0.00 0.00 0.00 0.00 0.00 0.00 0.00 0.00 0.00 0.00 0.00 0.00 0.00 0.00 0.01 0.04 0.03 0.02 0.04
0.14 0.30 0.47 0.70 0.94 1.16 1.36 1.60 1.53 1.30 1.07 0.86 0.75 0.47 0.29 0.20 0.12 0.08 0.07 0.04 0.03 0.01 0.01 0.00 0.00 0.00 0.00 0.00 0.00 0.00 0.00 0.00 0.00 0.00 0.00 0.00 0.00 0.00 0.00 0.01 0.02 0.04 0.06
0.15 0.25 0.43 0.58 0.61 0.70 0.78 0.83 0.72 0.54 0.47 0.42 0.34 0.28 0.23 0.14 0.07 0.04 0.05 0.04 0.03 0.02 0.01 0.01 0.01 0.00 0.00 0.00 0.00 0.00 0.00 0.00 0.00 0.00 0.00 0.00 0.00 0.00 0.00 0.00 0.01 0.04 0.07
0.11 0.16 0.22 0.26 0.28 0.36 0.36 0.35 0.30 0.22 0.20 0.18 0.14 0.14 0.12 0.09 0.06 0.05 0.05 0.07 0.06 0.05 0.04 0.03 0.02 0.01 0.01 0.00 0.00 0.00 0.00 0.00 0.00 0.00 0.00 0.01 0.01 0.01 0.00 0.00 0.00 0.01 0.05
0.05 0.06 0.08 0.10 0.08 0.13 0.15 0.16 0.19 0.17 0.16 0.16 0.15 0.13 0.11 0.09 0.07 0.06 0.07 0.09 0.14 0.12 0.06 0.05 0.04 0.03 0.02 0.01 0.01 0.00 0.00 0.00 0.00 0.00 0.00 0.00 0.01 0.01 0.01 0.00 0.00 0.00 0.01
0.04 0.02 0.02 0.02 0.03 0.04 0.07 0.14 0.17 0.14 0.14 0.16 0.16 0.13 0.10 0.10 0.09 0.10 0.11 0.10 0.10 0.10 0.10 0.09 0.06 0.04 0.04 0.03 0.01 0.01 0.00 0.00 0.00 0.00 0.00 0.00 0.00 0.00 0.01 0.01 0.00 0.00 0.01
0.03 0.01 0.01 0.01 0.02 0.02 0.03 0.06 0.09 0.12 0.12 0.11 0.12 0.10 0.09 0.10 0.10 0.10 0.09 0.09 0.09 0.09 0.09 0.10 0.08 0.05 0.05 0.04 0.02 0.02 0.01 0.00 0.00 0.00 0.00 0.00 0.00 0.01 0.01 0.02 0.01 0.01 0.01
0.03 0.01 0.01 0.01 0.01 0.01 0.01 0.02 0.03 0.03 0.04 0.05 0.05 0.05 0.06 0.07 0.08 0.08 0.08 0.08 0.08 0.08 0.08 0.09 0.09 0.08 0.07 0.06 0.05 0.03 0.02 0.01 0.01 0.00 0.00 0.00 0.00 0.01 0.01 0.02 0.02 0.01 0.01
0.04 0.02 0.00 0.00 0.00 0.00 0.00 0.00 0.01 0.01 0.01 0.01 0.01 0.02 0.02 0.03 0.04 0.05 0.05 0.05 0.06 0.07 0.07 0.07 0.08 0.08 0.07 0.06 0.05 0.04 0.03 0.03 0.01 0.00 0.00 0.00 0.00 0.01 0.01 0.01 0.02 0.03 0.02
0.02 0.01 0.00 0.00 0.00 0.00 0.00 0.00 0.00 0.00 0.00 0.00 0.00 0.00 0.00 0.01 0.01 0.01 0.01 0.02 0.03 0.04 0.04 0.05 0.05 0.05 0.04 0.04 0.04 0.04 0.03 0.02 0.01 0.01 0.00 0.00 0.00 0.00 0.01 0.02 0.03 0.05 0.06
0.02 0.00 0.00 0.00 0.00 0.00 0.00 0.00 0.00 0.00 0.00 0.00 0.00 0.00 0.00 0.00 0.00 0.00 0.00 0.00 0.01 0.01 0.01 0.02 0.02 0.03 0.03 0.03 0.03 0.02 0.02 0.01 0.01 0.01 0.01 0.00 0.00 0.00 0.00 0.01 0.02 0.04 0.07
0.00 0.00 0.00 0.00 0.00 0.00 0.00 0.00 0.00 0.00 0.00 0.00 0.00 0.00 0.00 0.00 0.00 0.00 0.00 0.00 0.00 0.00 0.00 0.00 0.01 0.01 0.02 0.03 0.03 0.03 0.02 0.02 0.01 0.02 0.02 0.01 0.00 0.00 0.00 0.00 0.02 0.03 0.06
0.00 0.00 0.00 0.00 0.00 0.00 0.00 0.00 0.00 0.00 0.00 0.00 0.00 0.00 0.00 0.00 0.00 0.00 0.00 0.00 0.00 0.00 0.00 0.00 0.00 0.00 0.01 0.02 0.03 0.03 0.04 0.04 0.03 0.02 0.01 0.01 0.00 0.00 0.00 0.00 0.01 0.01 0.04
0.00 0.00 0.00 0.00 0.00 0.00 0.00 0.00 0.00 0.00 0.00 0.00 0.00 0.00 0.00 0.00 0.00 0.00 0.00 0.00 0.00 0.00 0.00 0.00 0.00 0.00 0.01 0.02 0.03 0.03 0.04 0.04 0.03 0.02 0.01 0.01 0.00 0.00 0.00 0.00 0.00 0.01 0.02
0.00 0.00 0.00 0.00 0.00 0.00 0.00 0.00 0.00 0.00 0.00 0.00 0.00 0.00 0.00 0.00 0.00 0.00 0.00 0.00 0.00 0.00 0.00 0.00 0.00 0.00 0.01 0.01 0.02 0.03 0.04 0.04 0.04 0.02 0.02 0.01 0.00 0.00 0.00 0.00 0.00 0.01 0.01
0.00 0.00 0.00 0.00 0.00 0.00 0.00 0.00 0.00 0.00 0.00 0.00 0.00 0.00 0.00 0.00 0.00 0.00 0.00 0.01 0.01 0.01 0.01 0.01 0.01 0.01 0.00 0.01 0.01 0.02 0.04 0.05 0.05 0.04 0.03 0.01 0.01 0.00 0.00 0.00 0.01 0.01 0.02
0.00 0.00 0.00 0.00 0.00 0.00 0.00 0.00 0.00 0.00 0.00 0.00 0.00 0.00 0.00 0.00 0.00 0.00 0.01 0.01 0.01 0.01 0.01 0.01 0.01 0.01 0.00 0.01 0.01 0.02 0.04 0.06 0.07 0.06 0.05 0.03 0.01 0.00 0.00 0.00 0.01 0.01 0.02
0.00 0.00 0.00 0.00 0.00 0.00 0.00 0.00 0.00 0.00 0.00 0.00 0.00 0.00 0.00 0.00 0.00 0.01 0.01 0.01 0.01 0.01 0.01 0.01 0.01 0.00 0.00 0.01 0.02 0.03 0.04 0.07 0.09 0.08 0.07 0.04 0.02 0.01 0.00 0.00 0.01 0.00 0.01
0.00 0.00 0.00 0.00 0.00 0.00 0.00 0.00 0.00 0.00 0.00 0.00 0.00 0.01 0.01 0.01 0.01 0.01 0.01 0.01 0.01 0.01 0.01 0.01 0.01 0.01 0.00 0.01 0.02 0.04 0.06 0.10 0.14 0.13 0.11 0.07 0.04 0.02 0.01 0.01 0.01 0.01 0.02
0.00 0.00 0.00 0.00 0.00 0.00 0.00 0.00 0.01 0.01 0.01 0.01 0.02 0.02 0.02 0.02 0.01 0.01 0.01 0.01 0.01 0.01 0.01 0.01 0.01 0.01 0.01 0.01 0.02 0.04 0.09 0.17 0.22 0.22 0.17 0.13 0.07 0.03 0.01 0.00 0.01 0.02 0.02
0.00 0.00 0.00 0.00 0.00 0.00 0.01 0.02 0.02 0.02 0.02 0.02 0.02 0.02 0.02 0.02 0.01 0.01 0.01 0.01 0.01 0.01 0.01 0.01 0.01 0.02 0.01 0.01 0.01 0.04 0.10 0.22 0.31 0.34 0.28 0.20 0.11 0.04 0.01 0.01 0.01 0.02 0.02
0.00 0.00 0.00 0.00 0.00 0.01 0.02 0.02 0.02 0.02 0.02 0.02 0.02 0.02 0.02 0.02 0.01 0.02 0.02 0.02 0.02 0.01 0.01 0.01 0.01 0.01 0.01 0.01 0.01 0.03 0.11 0.26 0.38 0.44 0.40 0.28 0.16 0.07 0.02 0.01 0.02 0.02 0.02
0.00 0.00 0.00 0.01 0.01 0.01 0.01 0.02 0.02 0.02 0.02 0.03 0.02 0.02 0.02 0.02 0.02 0.03 0.02 0.02 0.02 0.01 0.01 0.01 0.02 0.02 0.02 0.02 0.02 0.04 0.13 0.29 0.43 0.55 0.54 0.37 0.22 0.11 0.03 0.02 0.03 0.02 0.01
0.00 0.00 0.01 0.01 0.01 0.01 0.01 0.02 0.02 0.03 0.04 0.04 0.03 0.02 0.03 0.03 0.03 0.03 0.04 0.03 0.02 0.02 0.02 0.02 0.03 0.03 0.02 0.03 0.03 0.04 0.15 0.34 0.48 0.60 0.61 0.44 0.25 0.12 0.04 0.02 0.02 0.01 0.01
0.00 0.01 0.02 0.02 0.02 0.02 0.02 0.02 0.03 0.05 0.06 0.05 0.04 0.04 0.04 0.04 0.04 0.04 0.04 0.04 0.03 0.03 0.02 0.02 0.03 0.03 0.02 0.03 0.03 0.06 0.17 0.39 0.57 0.60 0.57 0.47 0.25 0.11 0.04 0.02 0.02 0.01 0.01
0.01 0.02 0.03 0.03 0.03 0.03 0.03 0.03 0.04 0.06 0.06 0.06 0.05 0.05 0.05 0.05 0.05 0.05 0.04 0.03 0.02 0.01 0.01 0.01 0.02 0.03 0.01 0.01 0.03 0.09 0.21 0.40 0.60 0.62 0.50 0.37 0.20 0.08 0.03 0.01 0.01 0.01 0.01

GEFSMW_prec_meanprec_048.txt.gz
QPF
0.09 0.09 0.10 0.12 0.15 0.17 0.19 0.21 0.22 0.23 0.30 0.39 0.49 0.62 0.66 0.64 0.56 0.43 0.33 0.27 0.20 0.15 0.12 0.06 0.03 0.02 0.01 0.00 0.00 0.00 0.00 0.00 0.00 0.00 0.00 0.00 0.00 0.00 0.00 0.00 0.00 0.00 0.00
0.07 0.08 0.11 0.12 0.13 0.14 0.15 0.16 0.21 0.20 0.25 0.28 0.30 0.33 0.36 0.33 0.29 0.26 0.20 0.17 0.15 0.12 0.07 0.04 0.02 0.01 0.01 0.00 0.00 0.00 0.00 0.00 0.00 0.00 0.00 0.00 0.00 0.00 0.00 0.00 0.00 0.00 0.00
0.07 0.08 0.09 0.09 0.09 0.07 0.07 0.06 0.07 0.07 0.09 0.11 0.11 0.14 0.18 0.19 0.18 0.18 0.17 0.16 0.13 0.11 0.07 0.04 0.03 0.02 0.01 0.01 0.01 0.00 0.00 0.00 0.00 0.00 0.00 0.00 0.00 0.00 0.00 0.00 0.00 0.00 0.00
0.06 0.07 0.06 0.05 0.05 0.04 0.04 0.04 0.04 0.04 0.04 0.05 0.07 0.09 0.10 0.11 0.11 0.11 0.13 0.17 0.16 0.13 0.10 0.08 0.05 0.03 0.02 0.01 0.01 0.01 0.00 0.00 0.00 0.00 0.00 0.00 0.00 0.00 0.00 0.00 0.00 0.00 0.00
0.05 0.05 0.04 0.03 0.03 0.02 0.02 0.02 0.02 0.03 0.04 0.05 0.08 0.10 0.10 0.11 0.11 0.11 0.11 0.13 0.15 0.14 0.11 0.09 0.07 0.06 0.04 0.02 0.02 0.01 0.00 0.00 0.00 0.00 0.00 0.00 0.00 0.00 0.00 0.00 0.00 0.00 0.00
0.02 0.02 0.03 0.03 0.02 0.02 0.02 0.02 0.02 0.03 0.04 0.06 0.07 0.07 0.07 0.07 0.08 0.09 0.11 0.12 0.14 0.14 0.12 0.10 0.09 0.09 0.07 0.07 0.05 0.03 0.01 0.01 0.00 0.00 0.00 0.00 0.00 0.00 0.00 0.00 0.00 0.00 0.00
0.01 0.01 0.01 0.01 0.01 0.01 0.01 0.01 0.01 0.01 0.01 0.02 0.02 0.02 0.03 0.04 0.05 0.05 0.06 0.07 0.10 0.11 0.12 0.12 0.12 0.11 0.11 0.10 0.10 0.07 0.04 0.03 0.02 0.01 0.00 0.00 0.00 0.00 0.00 0.00 0.00 0.00 0.00
0.01 0.01 0.01 0.01 0.01 0.01 0.01 0.01 0.01 0.00 0.00 0.00 0.00 0.00 0.01 0.01 0.02 0.03 0.03 0.04 0.05 0.06 0.07 0.08 0.08 0.09 0.11 0.12 0.11 0.11 0.10 0.08 0.05 0.03 0.01 0.00 0.00 0.00 0.00 0.00 0.00 0.01 0.00
0.01 0.00 0.00 0.00 0.00 0.00 0.01 0.01 0.01 0.00 0.00 0.00 0.00 0.00 0.00 0.00 0.00 0.00 0.01 0.01 0.02 0.02 0.04 0.05 0.05 0.06 0.08 0.09 0.10 0.10 0.10 0.10 0.09 0.07 0.05 0.02 0.01 0.00 0.00 0.00 0.00 0.01 0.01
0.01 0.00 0.00 0.00 0.00 0.00 0.00 0.00 0.00 0.00 0.00 0.00 0.00 0.00 0.00 0.00 0.00 0.00 0.00 0.00 0.00 0.01 0.02 0.02 0.03 0.05 0.07 0.07 0.07 0.06 0.06 0.07 0.07 0.08 0.07 0.05 0.04 0.02 0.01 0.00 0.00 0.01 0.01
0.00 0.00 0.00 0.00 0.00 0.00 0.00 0.00 0.00 0.00 0.00 0.00 0.00 0.00 0.00 0.00 0.00 0.00 0.00 0.00 0.00 0.00 0.00 0.01 0.01 0.02 0.04 0.06 0.07 0.06 0.06 0.05 0.05 0.05 0.06 0.06 0.05 0.04 0.02 0.01 0.01 0.00 0.01
0.00 0.00 0.00 0.00 0.00 0.00 0.00 0.00 0.00 0.00 0.00 0.00 0.00 0.00 0.00 0.00 0.00 0.00 0.00 0.00 0.00 0.00 0.00 0.00 0.00 0.00 0.01 0.02 0.03 0.05 0.07 0.06 0.05 0.04 0.04 0.04 0.05 0.04 0.03 0.02 0.01 0.01 0.01
0.00 0.00 0.00 0.00 0.00 0.00 0.00 0.00 0.00 0.00 0.00 0.00 0.00 0.00 0.00 0.00 0.00 0.00 0.00 0.00 0.00 0.00 0.00 0.00 0.00 0.00 0.00 0.00 0.01 0.02 0.03 0.05 0.05 0.05 0.04 0.03 0.03 0.03 0.03 0.02 0.01 0.01 0.00
0.00 0.00 0.00 0.00 0.00 0.00 0.00 0.00 0.00 0.00 0.00 0.00 0.00 0.00 0.00 0.00 0.00 0.00 0.00 0.00 0.00 0.00 0.00 0.00 0.00 0.00 0.00 0.00 0.00 0.00 0.01 0.02 0.02 0.03 0.04 0.05 0.05 0.04 0.03 0.02 0.01 0.00 0.00
0.00 0.00 0.00 0.00 0.00 0.00 0.00 0.00 0.00 0.00 0.00 0.00 0.00 0.00 0.00 0.00 0.00 0.00 0.00 0.00 0.00 0.00 0.00 0.00 0.00 0.00 0.00 0.00 0.00 0.00 0.00 0.00 0.01 0.01 0.02 0.02 0.03 0.03 0.03 0.02 0.01 0.01 0.00
0.00 0.00 0.00 0.00 0.00 0.00 0.00 0.00 0.00 0.00 0.00 0.00 0.00 0.00 0.00 0.00 0.00 0.00 0.00 0.00 0.00 0.00 0.00 0.00 0.00 0.00 0.00 0.00 0.00 0.00 0.00 0.00 0.01 0.01 0.01 0.01 0.02 0.02 0.02 0.01 0.01 0.00 0.00
0.00 0.00 0.00 0.00 0.00 0.00 0.00 0.00 0.00 0.00 0.00 0.00 0.01 0.01 0.01 0.02 0.02 0.01 0.01 0.00 0.00 0.00 0.00 0.00 0.00 0.00 0.00 0.00 0.00 0.00 0.00 0.00 0.00 0.01 0.01 0.02 0.02 0.02 0.01 0.01 0.01 0.00 0.00
0.00 0.00 0.00 0.00 0.00 0.00 0.00 0.00 0.00 0.00 0.01 0.01 0.01 0.02 0.03 0.04 0.03 0.03 0.02 0.02 0.01 0.01 0.00 0.00 0.00 0.00 0.00 0.00 0.00 0.00 0.00 0.00 0.00 0.01 0.02 0.02 0.03 0.02 0.02 0.01 0.01 0.00 0.00
0.00 0.00 0.00 0.00 0.00 0.00 0.00 0.00 0.00 0.00 0.01 0.01 0.01 0.02 0.03 0.04 0.05 0.05 0.05 0.04 0.03 0.02 0.01 0.01 0.00 0.00 0.00 0.00 0.00 0.00 0.00 0.00 0.00 0.02 0.03 0.04 0.04 0.05 0.04 0.03 0.02 0.01 0.01
0.00 0.00 0.00 0.00 0.00 0.00 0.00 0.00 0.01 0.01 0.01 0.01 0.02 0.03 0.04 0.05 0.06 0.06 0.06 0.06 0.05 0.04 0.02 0.01 0.01 0.00 0.00 0.00 0.00 0.00 0.00 0.00 0.00 0.02 0.04 0.07 0.09 0.10 0.07 0.04 0.03 0.02 0.01
0.00 0.00 0.00 0.00 0.00 0.00 0.01 0.01 0.01 0.01 0.01 0.02 0.03 0.03 0.04 0.05 0.06 0.06 0.06 0.07 0.06 0.05 0.03 0.02 0.01 0.01 0.00 0.00 0.00 0.00 0.00 0.00 0.00 0.02 0.05 0.09 0.14 0.15 0.13 0.08 0.05 0.03 0.02
0.00 0.00 0.00 0.00 0.00 0.00 0.01 0.01 0.01 0.01 0.02 0.02 0.03 0.04 0.04 0.04 0.06 0.07 0.06 0.07 0.07 0.06 0.05 0.03 0.02 0.01 0.01 0.00 0.00 0.00 0.00 0.00 0.00 0.02 0.06 0.13 0.20 0.20 0.19 0.15 0.10 0.08 0.06
0.00 0.00 0.00 0.00 0.00 0.00 0.01 0.01 0.01 0.02 0.03 0.04 0.04 0.04 0.03 0.04 0.05 0.06 0.07 0.07 0.07 0.06 0.05 0.04 0.03 0.01 0.01 0.00 0.00 0.00 0.00 0.00 0.01 0.03 0.08 0.16 0.25 0.28 0.25 0.21 0.17 0.12 0.08
0.00 0.00 0.00 0.00 0.00 0.00 0.01 0.02 0.02 0.03 0.04 0.06 0.05 0.04 0.05 0.04 0.04 0.06 0.06 0.06 0.06 0.05 0.05 0.04 0.03 0.02 0.01 0.01 0.00 0.00 0.00 0.01 0.01 0.05 0.13 0.22 0.31 0.37 0.33 0.27 0.21 0.16 0.11
0.00 0.00 0.00 0.00 0.00 0.01 0.01 0.02 0.03 0.04 0.06 0.06 0.05 0.05 0.05 0.05 0.05 0.05 0.06 0.06 0.07 0.06 0.05 0.03 0.02 0.01 0.01 0.01 0.00 0.00 0.00 0.01 0.02 0.06 0.14 0.27 0.38 0.43 0.38 0.29 0.23 0.19 0.14
0.00 0.00 0.00 0.00 0.01 0.01 0.02 0.03 0.04 0.05 0.06 0.07 0.05 0.04 0.04 0.05 0.04 0.05 0.06 0.05 0.05 0.05 0.04 0.03 0.02 0.01 0.01 0.01 0.01 0.01 0.01 0.02 0.04 0.07 0.15 0.30 0.41 0.42 0.36 0.28 0.24 0.19 0.13

GEFSMW_prec_meanprec_054.txt.gz
QPF
0.02 0.03 0.03 0.03 0.03 0.03 0.05 0.05 0.06 0.07 0.06 0.05 0.04 0.04 0.05 0.07 0.12 0.15 0.16 0.18 0.22 0.23 0.24 0.22 0.19 0.17 0.13 0.08 0.05 0.05 0.05 0.04 0.03 0.03 0.03 0.02 0.01 0.00 0.00 0.00 0.00 0.00 0.00
0.02 0.02 0.02 0.02 0.02 0.02 0.03 0.04 0.05 0.05 0.04 0.03 0.02 0.02 0.05 0.07 0.10 0.13 0.16 0.15 0.17 0.16 0.14 0.12 0.13 0.11 0.10 0.09 0.06 0.05 0.04 0.03 0.02 0.01 0.01 0.01 0.00 0.00 0.00 0.00 0.00 0.00 0.00
0.01 0.01 0.01 0.01 0.01 0.01 0.02 0.02 0.02 0.02 0.02 0.02 0.02 0.02 0.02 0.03 0.05 0.07 0.10 0.09 0.10 0.11 0.10 0.08 0.07 0.07 0.07 0.07 0.06 0.05 0.04 0.03 0.02 0.01 0.01 0.00 0.00 0.00 0.00 0.00 0.00 0.00 0.00
0.01 0.01 0.01 0.00 0.01 0.01 0.01 0.01 0.01 0.01 0.01 0.01 0.01 0.02 0.03 0.05 0.05 0.06 0.07 0.07 0.08 0.08 0.08 0.08 0.07 0.07 0.06 0.06 0.04 0.04 0.04 0.03 0.02 0.02 0.01 0.01 0.01 0.00 0.00 0.00 0.00 0.00 0.00
0.00 0.00 0.00 0.00 0.00 0.00 0.00 0.00 0.00 0.01 0.01 0.01 0.01 0.01 0.02 0.04 0.04 0.03 0.04 0.04 0.05 0.05 0.06 0.07 0.07 0.07 0.06 0.06 0.05 0.04 0.04 0.04 0.03 0.02 0.01 0.01 0.01 0.00 0.00 0.00 0.00 0.00 0.00
0.00 0.00 0.00 0.00 0.00 0.00 0.00 0.00 0.01 0.01 0.01 0.01 0.01 0.01 0.02 0.03 0.03 0.03 0.03 0.02 0.03 0.03 0.04 0.07 0.09 0.09 0.09 0.09 0.08 0.06 0.07 0.06 0.05 0.04 0.03 0.02 0.01 0.01 0.00 0.00 0.00 0.00 0.00
0.00 0.00 0.00 0.00 0.00 0.00 0.00 0.00 0.01 0.02 0.02 0.02 0.02 0.02 0.03 0.02 0.01 0.01 0.01 0.01 0.01 0.01 0.02 0.03 0.06 0.08 0.09 0.11 0.12 0.11 0.09 0.09 0.09 0.08 0.07 0.05 0.03 0.02 0.01 0.00 0.00 0.00 0.00
0.00 0.00 0.00 0.00 0.00 0.00 0.00 0.00 0.01 0.01 0.01 0.02 0.02 0.02 0.02 0.01 0.01 0.00 0.00 0.00 0.00 0.00 0.01 0.01 0.02 0.03 0.05 0.07 0.10 0.12 0.14 0.13 0.11 0.11 0.11 0.10 0.07 0.06 0.04 0.02 0.02 0.02 0.01
0.00 0.00 0.00 0.00 0.00 0.00 0.00 0.00 0.00 0.01 0.01 0.01 0.01 0.01 0.01 0.01 0.01 0.01 0.01 0.00 0.00 0.00 0.00 0.00 0.01 0.02 0.03 0.04 0.06 0.09 0.13 0.16 0.17 0.16 0.16 0.16 0.14 0.11 0.08 0.06 0.04 0.04 0.03
0.00 0.00 0.00 0.00 0.00 0.00 0.00 0.00 0.00 0.00 0.00 0.00 0.00 0.00 0.00 0.01 0.01 0.01 0.01 0.00 0.00 0.00 0.00 0.00 0.00 0.01 0.01 0.02 0.04 0.05 0.07 0.10 0.15 0.19 0.21 0.21 0.20 0.18 0.15 0.12 0.09 0.07 0.05
0.00 0.00 0.00 0.00 0.00 0.00 0.00 0.00 0.00 0.00 0.00 0.00 0.00 0.00 0.00 0.00 0.00 0.00 0.00 0.01 0.01 0.01 0.00 0.00 0.00 0.00 0.00 0.01 0.03 0.05 0.06 0.08 0.10 0.14 0.18 0.22 0.23 0.22 0.19 0.15 0.12 0.09 0.07
0.00 0.00 0.00 0.00 0.00 0.00 0.00 0.00 0.00 0.00 0.00 0.00 0.00 0.00 0.00 0.00 0.00 0.00 0.00 0.00 0.01 0.01 0.00 0.00 0.01 0.00 0.00 0.01 0.01 0.03 0.05 0.08 0.10 0.13 0.16 0.18 0.22 0.23 0.23 0.19 0.15 0.12 0.09
0.00 0.00 0.00 0.00 0.00 0.00 0.00 0.00 0.00 0.00 0.00 0.00 0.00 0.00 0.00 0.00 0.00 0.01 0.01 0.01 0.01 0.01 0.01 0.01 0.01 0.01 0.00 0.00 0.01 0.01 0.02 0.04 0.07 0.11 0.14 0.17 0.20 0.21 0.21 0.21 0.19 0.17 0.13
0.00 0.00 0.00 0.00 0.00 0.00 0.00 0.00 0.00 0.00 0.00 0.00 0.00 0.00 0.00 0.00 0.01 0.01 0.01 0.01 0.02 0.02 0.02 0.02 0.01 0.01 0.00 0.01 0.01 0.01 0.01 0.02 0.03 0.05 0.09 0.12 0.16 0.19 0.21 0.19 0.17 0.17 0.16
0.00 0.00 0.00 0.00 0.00 0.00 0.00 0.00 0.00 0.00 0.00 0.00 0.00 0.00 0.00 0.01 0.01 0.01 0.02 0.02 0.03 0.02 0.03 0.03 0.03 0.02 0.01 0.01 0.01 0.01 0.01 0.02 0.02 0.02 0.03 0.04 0.08 0.13 0.18 0.22 0.20 0.17 0.14
0.00 0.00 0.00 0.00 0.00 0.00 0.00 0.00 0.00 0.00 0.00 0.00 0.00 0.01 0.01 0.01 0.01 0.02 0.03 0.03 0.04 0.04 0.04 0.05 0.05 0.04 0.01 0.00 0.00 0.01 0.01 0.02 0.02 0.02 0.02 0.02 0.03 0.05 0.09 0.13 0.18 0.19 0.16
0.00 0.00 0.00 0.00 0.00 0.00 0.00 0.00 0.00 0.00 0.01 0.01 0.01 0.01 0.02 0.03 0.03 0.03 0.04 0.05 0.06 0.07 0.07 0.07 0.07 0.07 0.05 0.02 0.00 0.00 0.02 0.03 0.03 0.02 0.02 0.01 0.01 0.02 0.04 0.06 0.08 0.10 0.10
0.00 0.00 0.00 0.00 0.00 0.00 0.00 0.00 0.00 0.01 0.01 0.01 0.02 0.02 0.04 0.05 0.05 0.07 0.07 0.09 0.09 0.09 0.08 0.09 0.10 0.10 0.07 0.03 0.01 0.00 0.01 0.04 0.03 0.03 0.02 0.02 0.02 0.02 0.02 0.03 0.05 0.05 0.05
0.00 0.00 0.00 0.00 0.00 0.00 0.00 0.00 0.01 0.01 0.01 0.02 0.03 0.04 0.05 0.06 0.07 0.08 0.09 0.11 0.12 0.10 0.09 0.09 0.10 0.10 0.09 0.05 0.02 0.01 0.03 0.05 0.04 0.03 0.02 0.02 0.02 0.02 0.01 0.02 0.03 0.04 0.04
0.00 0.00 0.00 0.00 0.00 0.00 0.00 0.01 0.01 0.01 0.02 0.03 0.03 0.05 0.07 0.08 0.09 0.09 0.10 0.12 0.14 0.13 0.11 0.10 0.09 0.10 0.11 0.07 0.03 0.02 0.04 0.06 0.06 0.06 0.04 0.01 0.01 0.01 0.01 0.02 0.03 0.04 0.04
0.00 0.00 0.00 0.00 0.00 0.00 0.01 0.01 0.01 0.02 0.02 0.03 0.04 0.05 0.08 0.09 0.09 0.10 0.10 0.11 0.12 0.13 0.12 0.11 0.10 0.10 0.10 0.09 0.04 0.02 0.03 0.06 0.07 0.06 0.04 0.03 0.00 0.01 0.01 0.02 0.04 0.05 0.05
0.00 0.00 0.00 0.00 0.00 0.00 0.01 0.02 0.02 0.02 0.02 0.03 0.04 0.06 0.08 0.08 0.08 0.10 0.10 0.12 0.12 0.12 0.11 0.11 0.10 0.10 0.09 0.08 0.06 0.02 0.02 0.04 0.07 0.07 0.05 0.04 0.01 0.01 0.02 0.03 0.04 0.05 0.06
0.00 0.00 0.00 0.00 0.00 0.01 0.01 0.02 0.02 0.02 0.03 0.03 0.05 0.07 0.08 0.09 0.10 0.10 0.10 0.11 0.11 0.11 0.10 0.10 0.09 0.09 0.09 0.09 0.04 0.02 0.01 0.01 0.04 0.06 0.04 0.02 0.01 0.01 0.03 0.05 0.07 0.07 0.08
0.00 0.00 0.00 0.00 0.00 0.01 0.01 0.02 0.02 0.03 0.03 0.04 0.06 0.06 0.07 0.08 0.09 0.11 0.11 0.11 0.11 0.11 0.10 0.10 0.10 0.10 0.10 0.11 0.08 0.05 0.02 0.01 0.02 0.02 0.02 0.00 0.00 0.02 0.05 0.08 0.10 0.11 0.13
0.00 0.00 0.00 0.00 0.01 0.01 0.01 0.02 0.03 0.03 0.04 0.04 0.05 0.05 0.06 0.08 0.08 0.09 0.10 0.08 0.09 0.08 0.08 0.10 0.12 0.12 0.12 0.09 0.07 0.07 0.06 0.04 0.05 0.04 0.05 0.03 0.02 0.04 0.07 0.12 0.17 0.20 0.23
0.00 0.00 0.00 0.00 0.01 0.01 0.01 0.02 0.03 0.04 0.04 0.05 0.05 0.05 0.05 0.07 0.07 0.08 0.09 0.07 0.05 0.03 0.02 0.03 0.05 0.08 0.07 0.04 0.02 0.02 0.01 0.01 0.01 0.03 0.08 0.07 0.06 0.09 0.13 0.17 0.23 0.26 0.29

GEFSMW_prec_meanprec_060.txt.gz
QPF
0.00 0.00 0.00 0.00 0.00 0.01 0.01 0.02 0.03 0.03 0.04 0.06 0.07 0.07 0.07 0.07 0.07 0.07 0.05 0.05 0.06 0.08 0.12 0.15 0.20 0.21 0.24 0.25 0.25 0.26 0.25 0.22 0.19 0.20 0.16 0.15 0.15 0.14 0.10 0.06 0.05 0.05 0.05
0.00 0.01 0.00 0.00 0.00 0.00 0.00 0.01 0.01 0.02 0.02 0.03 0.03 0.03 0.03 0.03 0.04 0.04 0.05 0.05 0.06 0.07 0.08 0.11 0.13 0.18 0.24 0.24 0.24 0.25 0.24 0.20 0.20 0.18 0.15 0.13 0.12 0.09 0.07 0.06 0.04 0.03 0.04
0.00 0.00 0.00 0.00 0.00 0.00 0.00 0.01 0.01 0.01 0.01 0.01 0.02 0.03 0.03 0.04 0.05 0.04 0.04 0.03 0.04 0.05 0.07 0.08 0.09 0.12 0.17 0.20 0.22 0.25 0.23 0.22 0.23 0.16 0.12 0.11 0.09 0.06 0.04 0.03 0.03 0.02 0.02
0.00 0.00 0.00 0.00 0.00 0.00 0.00 0.00 0.01 0.01 0.01 0.01 0.03 0.03 0.04 0.05 0.04 0.04 0.03 0.03 0.03 0.03 0.04 0.06 0.07 0.09 0.12 0.16 0.16 0.19 0.21 0.20 0.18 0.15 0.10 0.07 0.07 0.08 0.06 0.04 0.01 0.01 0.01
0.00 0.00 0.00 0.00 0.00 0.00 0.00 0.00 0.01 0.02 0.03 0.03 0.04 0.04 0.04 0.05 0.03 0.03 0.02 0.01 0.01 0.01 0.02 0.02 0.04 0.05 0.07 0.10 0.12 0.17 0.20 0.20 0.16 0.15 0.13 0.09 0.07 0.06 0.06 0.07 0.05 0.03 0.01
0.00 0.00 0.00 0.00 0.00 0.00 0.00 0.00 0.01 0.04 0.05 0.05 0.05 0.05 0.05 0.05 0.03 0.02 0.02 0.02 0.01 0.01 0.01 0.01 0.02 0.03 0.04 0.05 0.08 0.11 0.15 0.20 0.21 0.18 0.18 0.19 0.14 0.10 0.08 0.06 0.06 0.04 0.03
0.01 0.01 0.01 0.00 0.00 0.00 0.00 0.00 0.02 0.04 0.04 0.04 0.05 0.05 0.05 0.05 0.03 0.02 0.02 0.02 0.01 0.01 0.01 0.01 0.01 0.01 0.03 0.03 0.04 0.07 0.10 0.15 0.19 0.20 0.19 0.21 0.20 0.16 0.12 0.10 0.07 0.05 0.03
0.00 0.00 0.00 0.00 0.00 0.00 0.00 0.00 0.01 0.02 0.02 0.02 0.03 0.03 0.03 0.02 0.01 0.02 0.02 0.01 0.01 0.00 0.00 0.00 0.00 0.00 0.01 0.01 0.02 0.04 0.07 0.10 0.13 0.17 0.21 0.22 0.20 0.23 0.21 0.18 0.15 0.14 0.10
0.00 0.00 0.00 0.00 0.00 0.00 0.01 0.01 0.01 0.01 0.01 0.01 0.01 0.01 0.01 0.01 0.01 0.02 0.01 0.00 0.00 0.00 0.00 0.00 0.01 0.01 0.00 0.01 0.01 0.01 0.03 0.06 0.09 0.12 0.16 0.18 0.21 0.24 0.24 0.23 0.20 0.20 0.21
0.00 0.00 0.00 0.00 0.00 0.00 0.00 0.00 0.00 0.00 0.00 0.00 0.00 0.00 0.00 0.01 0.01 0.01 0.01 0.01 0.01 0.01 0.01 0.00 0.00 0.01 0.01 0.01 0.01 0.01 0.01 0.03 0.06 0.09 0.13 0.15 0.15 0.22 0.27 0.27 0.26 0.24 0.24
0.00 0.00 0.00 0.00 0.00 0.00 0.00 0.00 0.00 0.00 0.00 0.00 0.00 0.00 0.00 0.00 0.00 0.01 0.01 0.01 0.02 0.02 0.02 0.02 0.01 0.01 0.01 0.01 0.02 0.01 0.01 0.02 0.02 0.05 0.08 0.12 0.15 0.18 0.23 0.27 0.28 0.28 0.27
0.00 0.00 0.00 0.00 0.00 0.00 0.00 0.00 0.00 0.00 0.00 0.00 0.00 0.00 0.00 0.00 0.00 0.01 0.01 0.01 0.02 0.02 0.02 0.03 0.03 0.03 0.02 0.02 0.02 0.02 0.01 0.02 0.02 0.04 0.05 0.08 0.11 0.15 0.20 0.25 0.29 0.29 0.30
0.00 0.00 0.00 0.00 0.00 0.00 0.00 0.00 0.00 0.00 0.00 0.00 0.00 0.00 0.00 0.01 0.01 0.01 0.01 0.02 0.03 0.04 0.04 0.04 0.05 0.04 0.03 0.04 0.04 0.03 0.02 0.01 0.02 0.03 0.05 0.07 0.08 0.09 0.13 0.19 0.26 0.30 0.29
0.00 0.00 0.00 0.00 0.00 0.00 0.00 0.00 0.00 0.00 0.00 0.00 0.00 0.00 0.01 0.01 0.02 0.02 0.03 0.03 0.04 0.06 0.06 0.06 0.06 0.06 0.05 0.05 0.05 0.05 0.04 0.03 0.02 0.02 0.04 0.07 0.09 0.09 0.09 0.12 0.17 0.23 0.28
0.00 0.00 0.00 0.00 0.00 0.00 0.00 0.00 0.00 0.00 0.00 0.00 0.01 0.01 0.01 0.02 0.02 0.02 0.03 0.04 0.05 0.05 0.07 0.09 0.09 0.09 0.08 0.05 0.05 0.07 0.06 0.06 0.05 0.04 0.04 0.04 0.07 0.10 0.10 0.09 0.10 0.15 0.21
0.00 0.00 0.00 0.00 0.00 0.00 0.00 0.00 0.00 0.00 0.01 0.01 0.01 0.02 0.02 0.03 0.03 0.04 0.05 0.06 0.08 0.08 0.09 0.11 0.11 0.11 0.06 0.05 0.06 0.07 0.07 0.09 0.10 0.07 0.06 0.04 0.04 0.05 0.06 0.06 0.08 0.11 0.14
0.00 0.00 0.00 0.00 0.00 0.00 0.00 0.00 0.00 0.00 0.01 0.02 0.02 0.03 0.03 0.03 0.04 0.04 0.05 0.07 0.10 0.10 0.11 0.11 0.12 0.12 0.10 0.09 0.07 0.05 0.06 0.08 0.10 0.11 0.11 0.04 0.01 0.03 0.04 0.04 0.04 0.05 0.08
0.00 0.00 0.00 0.00 0.00 0.00 0.00 0.00 0.00 0.01 0.01 0.02 0.02 0.02 0.03 0.03 0.04 0.05 0.07 0.10 0.12 0.12 0.11 0.11 0.12 0.13 0.12 0.10 0.07 0.05 0.04 0.06 0.08 0.11 0.11 0.08 0.06 0.04 0.05 0.06 0.05 0.04 0.04
0.00 0.00 0.00 0.00 0.00 0.01 0.00 0.01 0.01 0.01 0.02 0.02 0.02 0.02 0.03 0.04 0.05 0.06 0.09 0.12 0.12 0.12 0.12 0.12 0.12 0.13 0.13 0.10 0.07 0.05 0.06 0.06 0.06 0.08 0.08 0.09 0.08 0.06 0.02 0.04 0.07 0.07 0.06
0.00 0.00 0.00 0.00 0.01 0.01 0.01 0.01 0.02 0.02 0.02 0.02 0.02 0.02 0.04 0.05 0.06 0.09 0.11 0.12 0.12 0.13 0.13 0.13 0.13 0.14 0.14 0.12 0.06 0.04 0.06 0.08 0.09 0.11 0.12 0.08 0.08 0.06 0.02 0.02 0.05 0.06 0.07
0.00 0.00 0.00 0.01 0.02 0.01 0.02 0.02 0.03 0.02 0.02 0.01 0.02 0.02 0.05 0.07 0.08 0.11 0.12 0.12 0.13 0.14 0.15 0.15 0.15 0.15 0.14 0.12 0.05 0.03 0.05 0.09 0.13 0.13 0.13 0.11 0.06 0.02 0.01 0.02 0.04 0.05 0.07
0.00 0.00 0.00 0.01 0.01 0.02 0.02 0.03 0.02 0.02 0.02 0.02 0.02 0.03 0.05 0.06 0.06 0.10 0.11 0.13 0.15 0.15 0.15 0.16 0.16 0.16 0.14 0.10 0.06 0.02 0.02 0.05 0.14 0.16 0.16 0.13 0.07 0.02 0.01 0.00 0.01 0.01 0.02
0.00 0.00 0.01 0.01 0.01 0.02 0.02 0.03 0.02 0.02 0.02 0.02 0.03 0.04 0.05 0.08 0.11 0.13 0.13 0.14 0.16 0.17 0.16 0.18 0.18 0.18 0.18 0.13 0.04 0.02 0.01 0.02 0.07 0.14 0.16 0.11 0.05 0.03 0.01 0.00 0.00 0.01 0.02
0.00 0.00 0.01 0.01 0.01 0.01 0.02 0.02 0.02 0.03 0.03 0.04 0.04 0.04 0.06 0.09 0.12 0.15 0.16 0.16 0.16 0.15 0.16 0.18 0.19 0.19 0.19 0.18 0.11 0.05 0.02 0.01 0.02 0.07 0.07 0.04 0.03 0.01 0.01 0.01 0.00 0.01 0.02
0.00 0.00 0.01 0.01 0.01 0.01 0.01 0.02 0.02 0.03 0.03 0.04 0.03 0.05 0.07 0.11 0.13 0.15 0.15 0.10 0.10 0.06 0.06 0.09 0.14 0.16 0.16 0.13 0.09 0.11 0.11 0.08 0.06 0.09 0.12 0.09 0.06 0.03 0.03 0.04 0.03 0.03 0.03
0.00 0.01 0.01 0.01 0.01 0.01 0.01 0.01 0.02 0.03 0.04 0.04 0.04 0.06 0.07 0.11 0.13 0.15 0.14 0.08 0.03 0.01 0.00 0.01 0.02 0.05 0.05 0.02 0.01 0.02 0.04 0.04 0.04 0.07 0.14 0.15 0.13 0.10 0.08 0.08 0.07 0.07 0.07

GEFSMW_prec_meanprec_066.txt.gz
QPF
0.01 0.01 0.01 0.01 0.02 0.03 0.03 0.03 0.03 0.02 0.03 0.03 0.02 0.02 0.02 0.03 0.05 0.05 0.04 0.03 0.04 0.03 0.02 0.02 0.02 0.03 0.04 0.05 0.06 0.07 0.07 0.08 0.11 0.15 0.16 0.17 0.18 0.19 0.18 0.16 0.15 0.13 0.12
0.01 0.00 0.00 0.00 0.00 0.01 0.01 0.01 0.01 0.02 0.02 0.01 0.01 0.01 0.02 0.02 0.02 0.01 0.01 0.01 0.01 0.02 0.01 0.01 0.01 0.02 0.03 0.03 0.04 0.06 0.07 0.08 0.09 0.12 0.15 0.14 0.15 0.16 0.18 0.17 0.14 0.13 0.12
0.02 0.01 0.00 0.00 0.00 0.00 0.00 0.00 0.00 0.01 0.01 0.01 0.01 0.01 0.01 0.01 0.01 0.02 0.02 0.01 0.01 0.01 0.01 0.01 0.02 0.02 0.02 0.02 0.02 0.05 0.06 0.06 0.08 0.11 0.13 0.13 0.12 0.10 0.11 0.12 0.10 0.09 0.09
0.02 0.01 0.00 0.00 0.00 0.00 0.00 0.00 0.00 0.01 0.01 0.01 0.01 0.01 0.01 0.01 0.01 0.01 0.01 0.01 0.01 0.01 0.01 0.01 0.01 0.01 0.02 0.01 0.01 0.03 0.06 0.06 0.09 0.11 0.12 0.14 0.16 0.14 0.11 0.09 0.08 0.08 0.07
0.03 0.01 0.00 0.00 0.00 0.00 0.00 0.00 0.00 0.01 0.01 0.01 0.02 0.01 0.01 0.01 0.01 0.01 0.01 0.01 0.01 0.01 0.01 0.01 0.01 0.01 0.01 0.01 0.01 0.02 0.03 0.05 0.07 0.12 0.13 0.13 0.17 0.18 0.16 0.11 0.09 0.09 0.09
0.01 0.00 0.00 0.00 0.00 0.00 0.00 0.00 0.01 0.01 0.01 0.01 0.01 0.01 0.01 0.01 0.01 0.00 0.00 0.01 0.01 0.01 0.01 0.01 0.01 0.01 0.01 0.01 0.00 0.01 0.01 0.03 0.05 0.08 0.12 0.11 0.13 0.19 0.21 0.15 0.11 0.10 0.10
0.00 0.00 0.00 0.00 0.00 0.00 0.00 0.00 0.00 0.00 0.00 0.00 0.01 0.01 0.00 0.01 0.01 0.00 0.00 0.01 0.01 0.01 0.01 0.01 0.01 0.01 0.01 0.01 0.01 0.01 0.01 0.01 0.02 0.05 0.08 0.10 0.09 0.13 0.18 0.16 0.12 0.12 0.14
0.00 0.00 0.00 0.00 0.00 0.00 0.00 0.00 0.00 0.00 0.00 0.00 0.00 0.00 0.00 0.00 0.00 0.00 0.00 0.00 0.00 0.00 0.00 0.01 0.01 0.01 0.01 0.01 0.01 0.01 0.01 0.01 0.01 0.02 0.04 0.07 0.07 0.09 0.14 0.16 0.16 0.16 0.20
0.00 0.00 0.00 0.00 0.00 0.00 0.00 0.00 0.00 0.00 0.00 0.00 0.00 0.00 0.00 0.00 0.00 0.00 0.00 0.00 0.00 0.00 0.00 0.00 0.00 0.01 0.01 0.01 0.01 0.01 0.01 0.01 0.01 0.01 0.01 0.03 0.04 0.05 0.11 0.15 0.18 0.18 0.21
0.00 0.00 0.00 0.00 0.00 0.00 0.00 0.00 0.00 0.00 0.00 0.00 0.00 0.00 0.00 0.00 0.00 0.00 0.00 0.00 0.00 0.00 0.00 0.00 0.00 0.00 0.01 0.01 0.01 0.01 0.01 0.01 0.01 0.01 0.01 0.01 0.02 0.03 0.06 0.11 0.17 0.20 0.20
0.00 0.00 0.00 0.00 0.00 0.00 0.00 0.00 0.00 0.00 0.00 0.00 0.00 0.00 0.00 0.00 0.00 0.00 0.00 0.00 0.00 0.00 0.00 0.00 0.00 0.00 0.00 0.01 0.01 0.01 0.01 0.01 0.01 0.00 0.00 0.01 0.02 0.02 0.04 0.07 0.11 0.18 0.21
0.00 0.00 0.00 0.00 0.00 0.00 0.00 0.00 0.00 0.00 0.00 0.00 0.00 0.00 0.00 0.00 0.00 0.00 0.00 0.00 0.00 0.00 0.00 0.00 0.01 0.01 0.01 0.01 0.02 0.02 0.01 0.01 0.01 0.00 0.00 0.00 0.01 0.02 0.03 0.05 0.08 0.14 0.20
0.00 0.00 0.00 0.00 0.00 0.00 0.00 0.00 0.00 0.00 0.00 0.00 0.00 0.00 0.00 0.00 0.00 0.00 0.00 0.00 0.00 0.00 0.00 0.00 0.00 0.01 0.01 0.01 0.02 0.03 0.03 0.02 0.02 0.01 0.01 0.00 0.00 0.01 0.02 0.04 0.06 0.11 0.19
0.00 0.00 0.00 0.00 0.00 0.00 0.00 0.00 0.00 0.00 0.00 0.00 0.00 0.00 0.00 0.00 0.00 0.00 0.00 0.00 0.00 0.00 0.00 0.00 0.01 0.01 0.01 0.01 0.01 0.02 0.03 0.03 0.03 0.02 0.02 0.01 0.01 0.00 0.01 0.03 0.05 0.08 0.14
0.00 0.00 0.00 0.00 0.00 0.00 0.00 0.00 0.00 0.00 0.00 0.00 0.00 0.00 0.00 0.00 0.00 0.00 0.00 0.00 0.00 0.00 0.00 0.00 0.00 0.01 0.01 0.01 0.01 0.02 0.03 0.03 0.04 0.04 0.03 0.02 0.01 0.01 0.01 0.01 0.03 0.06 0.10
0.00 0.00 0.00 0.00 0.00 0.00 0.00 0.00 0.00 0.00 0.00 0.00 0.00 0.00 0.00 0.00 0.00 0.00 0.00 0.00 0.00 0.00 0.00 0.00 0.00 0.00 0.00 0.01 0.01 0.02 0.03 0.05 0.05 0.05 0.04 0.03 0.02 0.02 0.02 0.01 0.02 0.04 0.07
0.00 0.00 0.00 0.00 0.00 0.00 0.00 0.00 0.00 0.00 0.00 0.00 0.00 0.00 0.00 0.00 0.00 0.00 0.00 0.00 0.01 0.00 0.00 0.00 0.01 0.00 0.01 0.01 0.01 0.01 0.02 0.03 0.04 0.05 0.05 0.04 0.03 0.03 0.02 0.02 0.02 0.02 0.05
0.00 0.00 0.00 0.00 0.00 0.00 0.00 0.00 0.00 0.00 0.00 0.00 0.00 0.00 0.00 0.00 0.00 0.00 0.00 0.01 0.01 0.01 0.01 0.01 0.01 0.00 0.00 0.01 0.01 0.01 0.01 0.02 0.03 0.04 0.05 0.05 0.04 0.05 0.05 0.03 0.02 0.01 0.02
0.00 0.00 0.00 0.00 0.00 0.00 0.00 0.00 0.00 0.00 0.00 0.00 0.00 0.00 0.00 0.00 0.00 0.00 0.00 0.01 0.01 0.00 0.01 0.01 0.01 0.01 0.01 0.01 0.01 0.01 0.01 0.01 0.02 0.03 0.04 0.05 0.04 0.05 0.05 0.05 0.03 0.02 0.01
0.00 0.00 0.00 0.00 0.00 0.00 0.00 0.00 0.00 0.00 0.00 0.00 0.00 0.00 0.00 0.00 0.00 0.00 0.01 0.01 0.01 0.01 0.01 0.01 0.01 0.01 0.01 0.01 0.01 0.01 0.01 0.01 0.02 0.03 0.04 0.06 0.06 0.06 0.05 0.06 0.05 0.03 0.02
0.00 0.00 0.00 0.00 0.00 0.00 0.00 0.00 0.00 0.00 0.00 0.00 0.00 0.00 0.00 0.00 0.00 0.01 0.01 0.01 0.01 0.01 0.02 0.01 0.01 0.02 0.01 0.01 0.01 0.01 0.01 0.01 0.02 0.03 0.04 0.05 0.05 0.05 0.04 0.04 0.04 0.03 0.02
0.00 0.00 0.00 0.00 0.00 0.00 0.00 0.00 0.00 0.00 0.00 0.00 0.00 0.00 0.00 0.00 0.00 0.01 0.01 0.01 0.02 0.02 0.02 0.02 0.02 0.03 0.02 0.01 0.01 0.01 0.01 0.01 0.03 0.04 0.05 0.06 0.05 0.04 0.04 0.03 0.03 0.03 0.03
0.00 0.00 0.00 0.00 0.00 0.00 0.00 0.00 0.00 0.00 0.00 0.00 0.00 0.00 0.00 0.00 0.01 0.01 0.01 0.01 0.01 0.01 0.01 0.01 0.01 0.02 0.02 0.02 0.01 0.00 0.00 0.01 0.02 0.04 0.07 0.07 0.05 0.04 0.03 0.03 0.03 0.04 0.02
0.00 0.00 0.00 0.00 0.00 0.00 0.00 0.00 0.00 0.00 0.00 0.00 0.00 0.00 0.00 0.00 0.01 0.01 0.01 0.01 0.01 0.01 0.01 0.01 0.01 0.01 0.02 0.02 0.01 0.01 0.01 0.01 0.01 0.03 0.06 0.07 0.06 0.05 0.04 0.03 0.02 0.02 0.01
0.00 0.00 0.00 0.00 0.00 0.00 0.00 0.00 0.00 0.00 0.00 0.00 0.00 0.00 0.00 0.01 0.01 0.01 0.02 0.01 0.01 0.01 0.00 0.00 0.00 0.01 0.01 0.01 0.01 0.01 0.01 0.01 0.01 0.02 0.03 0.04 0.04 0.04 0.03 0.02 0.02 0.01 0.01
0.00 0.00 0.00 0.00 0.00 0.00 0.00 0.00 0.00 0.00 0.00 0.00 0.00 0.00 0.01 0.01 0.01 0.01 0.01 0.01 0.01 0.01 0.00 0.00 0.00 0.00 0.00 0.00 0.01 0.01 0.01 0.01 0.01 0.03 0.03 0.03 0.04 0.04 0.03 0.02 0.01 0.01 0.00